FW3743 Weather Reports


Display with metric or nautical units.
time (UTC)temp
F
wind
direction
speed
MPH
gust
MPH
rain 1hr
in
rain 24hr
in
rain mn
in
humidity
%
barometer
mb
20260902214235 80 86 0.0 1.0 0.00 1.18 1.18 86 1014.3
20260902213253 81 89 0.0 1.0 0.00 1.18 1.18 85 1014.6
20260902212235 81 85 0.0 1.0 0.00 1.18 1.18 84 1015.0
20260902211233 80 0.0 0.0 0.00 1.18 1.18 85 1015.1
20260902210235 80 0.0 0.0 0.00 1.18 1.18 85 1015.1
20260902205233 81 266 0.0 1.0 0.00 1.18 1.18 83 1015.1
20260902204241 82 11 0.0 2.0 0.00 1.18 1.18 81 1015.2
20260902203233 83 337 0.0 4.0 0.00 1.18 1.18 81 1014.8
20260902202236 83 191 0.0 4.0 0.00 1.18 1.18 79 1015.0
20260902201313 83 273 1.0 8.0 0.00 1.18 1.18 80 1014.8
20260902200236 85 0.0 0.0 0.00 1.18 1.18 78 1014.7
20260902195233 84 108 0.0 7.0 0.00 1.18 1.18 77 1014.3
20260902194235 84 356 0.0 2.0 0.00 1.18 1.18 78 1014.7
20260902193233 84 295 0.0 2.0 0.00 1.18 1.18 78 1014.5
20260902192256 84 0.0 0.0 0.00 1.18 1.18 76 1014.9
20260902191253 84 135 0.0 1.0 0.00 1.18 1.18 75 1014.8
20260902190236 84 88 0.0 4.0 0.00 1.18 1.18 75 1015.2
20260902185233 84 118 0.0 4.0 0.00 1.18 1.18 75 1015.1
20260902184235 83 231 0.0 7.0 0.00 1.18 1.18 75 1015.5
20260902183354 83 286 0.0 5.0 0.00 1.18 1.18 73 1015.3
20260902182235 83 284 0.0 8.0 0.00 1.18 1.18 75 1015.8
20260902181233 83 305 2.0 8.0 0.00 1.18 1.18 74 1015.6
20260902180256 82 329 0.0 4.0 0.00 1.18 1.18 76 1015.5
20260902175233 82 56 0.0 4.0 0.00 1.18 1.18 80 1015.4
20260902174236 81 5 0.0 7.0 0.00 1.18 1.18 83 1015.8
20260902173233 81 71 0.0 4.0 0.00 1.18 1.18 84 1015.4
20260902172236 79 344 0.0 2.0 0.00 1.18 1.18 86 1015.5
20260902171234 79 287 0.0 5.0 0.00 1.18 1.18 86 1015.4
20260902170236 77 281 0.0 1.0 0.00 1.18 1.18 88 1015.8
20260902165233 76 0.0 0.0 0.00 1.18 1.18 89 1015.4
20260902164236 75 77 0.0 1.0 0.02 1.18 1.18 95 1015.6
20260902163253 73 99 0.0 7.0 0.03 1.18 1.18 96 1015.4
20260902162236 71 356 0.0 4.0 0.06 1.18 1.18 99 1015.5
20260902161233 70 68 0.0 2.0 0.08 1.18 1.18 99 1015.6
20260902160236 69 284 0.0 2.0 0.12 1.18 1.18 99 1015.9
20260902155242 68 289 0.0 2.0 0.22 1.18 1.18 99 1016.0
20260902154236 68 250 0.0 5.0 0.26 1.16 1.16 99 1016.5
20260902153233 68 67 0.0 1.0 0.28 1.14 1.14 99 1016.7
20260902152256 68 49 0.0 1.0 0.29 1.11 1.11 99 1017.9
20260902151233 68 0.0 0.0 0.30 1.09 1.09 99 1018.2
20260902150256 68 279 0.0 2.0 0.30 1.05 1.05 99 1018.6
20260902145233 68 0.0 0.0 0.60 0.96 0.96 99 1018.4
20260902144236 69 298 0.0 4.0 0.80 0.89 0.89 99 1018.7
20260902143233 69 0.0 0.0 0.82 0.85 0.85 99 1017.9
20260902142236 69 0.0 0.0 0.80 0.81 0.81 99 1017.9
20260902141233 69 0.0 0.0 0.77 0.78 0.78 99 1017.6
20260902140444 69 0.0 0.0 0.74 0.74 0.74 99 1017.8
20260902135234 67 320 0.0 4.0 0.35 0.35 0.35 99 1017.9
20260902134236 68 0.0 0.0 0.09 0.09 0.09 99 1017.1
20260902133234 68 0.0 0.0 0.02 0.02 0.02 99 1017.3
20260902132236 68 0.0 0.0 0.00 0.00 0.00 99 1017.6
20260902131234 68 90 0.0 4.0 0.00 0.00 0.00 99 1017.4
20260902130233 68 0.0 0.0 0.00 0.00 0.00 99 1017.5
20260902125254 68 34 0.0 1.0 0.00 0.00 0.00 99 1017.3
20260902124233 68 0.0 0.0 0.00 0.00 0.00 99 1017.1
20260902123234 68 0.0 0.0 0.00 0.00 0.00 99 1017.1
20260902122233 68 0.0 0.0 0.00 0.00 0.00 99 1017.3
20260902121234 68 0.0 0.0 0.00 0.00 0.00 99 1017.0
20260902120253 68 0.0 0.0 0.00 0.00 0.00 99 1016.5
20260902115234 68 87 0.0 1.0 0.00 0.00 0.00 99 1016.5
20260902114253 68 83 0.0 2.0 0.00 0.00 0.00 99 1016.6
20260902113254 68 78 0.0 1.0 0.00 0.00 0.00 99 1016.4
20260902112233 68 78 0.0 5.0 0.00 0.00 0.00 99 1016.4
20260902111234 67 83 0.0 1.0 0.00 0.00 0.00 99 1016.3
20260902110233 67 0.0 0.0 0.00 0.00 0.00 99 1016.3
20260902105234 67 93 0.0 2.0 0.00 0.00 0.00 99 1016.1
20260902104233 67 0.0 0.0 0.00 0.00 0.00 99 1016.0
20260902103234 67 0.0 0.0 0.00 0.00 0.00 99 1016.2
20260902102233 67 0.0 0.0 0.00 0.00 0.00 99 1016.6
20260902101234 67 0.0 0.0 0.00 0.00 0.00 99 1016.9
20260902100233 67 0.0 0.0 0.00 0.00 0.00 99 1016.9
20260902095234 67 0.0 0.0 0.00 0.00 0.00 99 1016.6
20260902094233 67 0.0 0.0 0.00 0.00 0.00 99 1016.9
20260902093234 67 0.0 0.0 0.00 0.02 0.00 99 1016.7
20260902092233 67 0.0 0.0 0.00 0.02 0.00 99 1016.8
20260902091234 67 0.0 0.0 0.00 0.02 0.00 99 1016.7
20260902090233 67 0.0 0.0 0.00 0.02 0.00 99 1016.8
20260902085234 67 0.0 0.0 0.00 0.02 0.00 99 1016.8
20260902084253 66 0.0 0.0 0.00 0.02 0.00 99 1017.0
20260902083254 66 0.0 0.0 0.00 0.02 0.00 99 1017.1
20260902082233 66 0.0 0.0 0.00 0.02 0.00 99 1017.0
20260902081234 66 0.0 0.0 0.00 0.02 0.00 99 1016.9
20260902080233 66 0.0 0.0 0.00 0.02 0.00 99 1017.0
20260902075234 66 0.0 0.0 0.00 0.02 0.00 99 1016.8
20260902074253 66 0.0 0.0 0.00 0.02 0.00 99 1017.0
20260902073234 67 0.0 0.0 0.00 0.02 0.00 99 1016.8
20260902072233 67 0.0 0.0 0.00 0.02 0.00 99 1016.9
20260902071234 67 0.0 0.0 0.00 0.12 0.00 99 1016.8
20260902070233 67 0.0 0.0 0.00 0.16 0.00 99 1016.8
20260902065234 66 0.0 0.0 0.00 0.18 0.00 99 1016.6
20260902064253 66 0.0 0.0 0.00 0.19 0.00 99 1016.8
20260902063234 66 0.0 0.0 0.00 0.19 0.00 99 1016.8
20260902062233 66 0.0 0.0 0.00 0.19 0.00 99 1017.1
20260902061234 66 0.0 0.0 0.00 0.19 0.00 99 1016.7
20260902060233 66 0.0 0.0 0.00 0.19 0.00 99 1016.9
20260902055234 66 0.0 0.0 0.00 0.19 0.00 99 1016.6
20260902054233 66 0.0 0.0 0.00 0.19 0.00 99 1016.9
20260902053234 66 0.0 0.0 0.00 0.19 0.00 99 1016.7
20260902052233 66 0.0 0.0 0.00 0.19 0.00 99 1016.9
20260902051234 66 0.0 0.0 0.00 0.19 0.00 99 1016.5
20260902050233 66 0.0 0.0 0.00 0.19 0.00 99 1016.8
20260902045234 66 0.0 0.0 0.00 0.19 0.00 99 1016.6
20260902044254 66 0.0 0.0 0.00 0.19 0.00 99 1016.7
20260902043234 66 0.0 0.0 0.00 0.19 0.00 99 1016.4
20260902042233 67 0.0 0.0 0.00 0.19 0.00 99 1016.6
20260902041234 67 0.0 0.0 0.00 0.19 0.00 99 1016.3
20260902040233 66 0.0 0.0 0.00 0.19 0.00 99 1016.3
20260902035234 67 0.0 0.0 0.00 0.19 0.19 99 1016.4
20260902034233 67 0.0 0.0 0.00 0.19 0.19 99 1016.7
20260902033235 67 0.0 0.0 0.00 0.19 0.19 99 1016.4
20260902032233 68 0.0 0.0 0.00 0.19 0.19 99 1016.5
20260902031234 68 0.0 0.0 0.00 0.19 0.19 99 1016.2
20260902030233 69 0.0 0.0 0.00 0.19 0.19 99 1016.5
20260902025234 69 0.0 0.0 0.00 0.19 0.19 99 1016.1
20260902024233 69 0.0 0.0 0.00 0.19 0.19 99 1016.3
20260902023234 69 0.0 0.0 0.00 0.19 0.19 99 1016.2
20260902022233 69 0.0 0.0 0.00 0.19 0.19 99 1016.5
20260902021234 70 0.0 0.0 0.00 0.19 0.19 99 1015.6
20260902020233 70 0.0 0.0 0.00 0.19 0.19 99 1016.6
20260902015234 70 0.0 0.0 0.00 0.19 0.19 99 1015.6
20260902014233 70 0.0 0.0 0.00 0.19 0.19 98 1016.5
20260902013234 71 0.0 0.0 0.00 0.19 0.19 98 1016.3
20260902012233 71 0.0 0.0 0.00 0.19 0.19 98 1016.3
20260902011234 71 0.0 0.0 0.00 0.19 0.19 98 1015.2
20260902010233 71 0.0 0.0 0.00 0.19 0.19 98 1016.0
20260902005234 71 78 0.0 1.0 0.00 0.19 0.19 98 1014.8
20260902004233 71 0.0 0.0 0.00 0.19 0.19 98 1015.6
20260902003255 71 0.0 0.0 0.00 0.19 0.19 97 1014.4
20260902002233 72 100 0.0 4.0 0.00 0.19 0.19 97 1015.1
20260902001235 72 0.0 0.0 0.00 0.19 0.19 97 1014.2
20260902000234 72 0.0 0.0 0.00 0.19 0.19 96 1014.9
20260901235235 72 0.0 0.0 0.00 0.19 0.19 96 1014.0
20260901234233 72 0.0 0.0 0.00 0.19 0.19 95 1015.0
20260901233235 73 0.0 0.0 0.00 0.19 0.19 95 1014.2
20260901232233 73 0.0 0.0 0.00 0.19 0.19 94 1015.1
20260901231235 73 0.0 0.0 0.00 0.19 0.19 94 1014.2
20260901230233 74 78 0.0 1.0 0.00 0.19 0.19 93 1015.2
20260901225235 74 89 0.0 1.0 0.00 0.19 0.19 93 1014.1
20260901224233 75 98 0.0 1.0 0.00 0.19 0.19 92 1015.4
20260901223235 75 0.0 0.0 0.00 0.19 0.19 92 1014.3
20260901222253 75 0.0 0.0 0.00 0.19 0.19 92 1015.4
20260901221235 76 0.0 0.0 0.00 0.19 0.19 91 1014.0
20260901220233 76 0.0 0.0 0.00 0.19 0.19 91 1014.9
20260901215235 77 0.0 0.0 0.00 0.19 0.19 89 1013.8